#timestamp,LO_Frequency,Hit,StdDev 
1606564815.5,286046998.1,N
1606564835.3,286047000.0,N
1606564855.2,286047001.9,N
1606564875.9,286047000.5,N
1606564895.7,286046996.6,N
1606564915.6,286046998.9,N
1606564935.4,286047003.5,N
1606564955.2,286047006.8,N
1606564975.1,286047008.8,N
1606564976.0,286047008.8,N
1606564995.8,286047004.9,N
1606565015.7,286047012.1,N
1606565035.5,286047015.4,N
1606565055.3,286047014.6,N
1606565075.2,286047007.7,N
1606565095.0,286047013.7,N
1606565095.9,286047013.7,N
1606565115.7,286047016.4,N
1606565135.6,286047021.1,N
1606565155.4,286047030.0,Y
1606565175.3,286047023.0,P
1606565195.1,286047021.9,N
1606565215.8,286047019.6,N
1606565235.7,286047029.9,Y
1606565255.5,286047015.9,P
1606565275.4,286047020.1,P
1606565295.2,286047020.8,P
1606565315.0,286047020.2,Y
1606565315.9,286047020.2,P
1606565335.8,286046997.1,P
1606565355.6,286046997.2,N
1606565375.4,286047007.2,N
1606565395.3,286047006.9,N
1606565415.1,286047003.0,N
1606565435.9,286047001.2,N
1606565455.7,286046996.8,N
1606565475.5,286046996.3,N
1606565495.4,286046999.2,N
1606565515.2,286047003.9,N
1606565535.1,286047009.6,N
1606565536.0,286047009.6,N
1606565555.8,286047010.7,N
1606565575.6,286047006.4,N
1606565595.5,286047005.1,N
1606565615.3,286047008.9,N
1606565635.1,286047018.8,N
1606565655.9,286047017.6,N
1606565675.7,286047014.7,N
1606565695.6,286047011.2,N
1606565715.4,286047002.7,N
1606565735.2,286046994.4,N
1606565755.1,286046990.7,N
1606565756.0,286046990.7,N
1606565775.8,286046990.2,N
1606565795.6,286046988.0,N
1606565815.5,286046985.0,N
1606565835.3,286046986.6,N
1606565855.2,286046981.1,N
1606565875.9,286046980.7,N
1606565895.7,286046983.4,N
1606565915.6,286046979.4,N
1606565935.4,286046980.3,N
1606565955.2,286046969.1,N
1606565975.1,286046960.5,Y
1606565976.0,286046960.5,P
1606565995.8,286046970.2,N
1606566015.7,286046973.7,N
1606566035.5,286046973.3,N
1606566055.3,286046967.3,N
1606566075.2,286046960.7,Y
1606566095.0,286046979.7,P
1606566095.9,286046979.7,P
1606566115.8,286046974.7,P
1606566135.6,286046979.7,Y
1606566155.4,286047007.2,P
1606566175.3,286047006.5,N
1606566195.1,286047005.9,N
1606566215.9,286046999.0,N
1606566235.7,286046999.1,N
1606566255.5,286046999.9,N
1606566275.4,286047001.3,N
1606566295.2,286047008.0,N
1606566315.0,286047012.0,N
1606566316.0,286047012.0,N
1606566335.8,286047013.9,N
1606566355.6,286047010.7,N
1606566375.5,286047009.8,N
1606566395.3,286047010.1,N
1606566415.1,286047013.9,N
1606566435.9,286047010.6,N
1606566455.7,286047001.4,N
1606566475.6,286047001.2,N
1606566495.4,286047001.5,N
1606566515.2,286046995.3,N
1606566535.1,286046995.2,N
1606566536.0,286046995.2,N
1606566555.8,286047001.5,N
1606566575.7,286047002.4,N
1606566595.5,286047001.4,N
1606566615.3,286047002.1,N
1606566635.2,286047001.6,N
1606566655.0,286047000.7,N
1606566655.9,286047000.7,N
1606566675.7,286046997.4,N
1606566695.6,286046999.8,N
1606566715.4,286046999.2,N
1606566735.3,286047005.1,N
1606566755.1,286047016.9,Y
1606566775.8,286047010.4,P
1606566795.7,286046999.8,N
1606566815.5,286047007.6,N
1606566835.4,286047006.8,N
1606566855.2,286047000.5,N
1606566875.0,286046998.6,N
1606566875.9,286046998.6,N
1606566895.8,286047003.6,N
1606566915.6,286047005.0,N
1606566935.4,286047006.1,N
1606566955.3,286047005.0,N
1606566975.1,286047007.1,N
1606566995.9,286046999.9,N
1606567015.7,286047000.9,N
1606567035.5,286047013.1,Y
1606567055.4,286047015.6,P
1606567075.2,286047013.2,N
1606567095.0,286047011.3,N
1606567095.9,286047011.3,N
1606567115.8,286047008.7,N
1606567135.6,286047005.2,N
1606567155.5,286047004.3,N
1606567175.3,286047000.5,N
1606567195.1,286046997.9,N
1606567215.9,286046991.9,N
1606567235.7,286046992.8,N
1606567255.5,286046987.4,N
1606567275.4,286046987.8,N
1606567295.2,286046986.3,N
1606567315.1,286047002.9,N
1606567316.0,286047002.9,N
1606567335.8,286047001.6,N
1606567355.6,286046999.5,N
1606567375.5,286047004.0,N
1606567395.3,286047005.3,N
1606567415.1,286047002.5,N
1606567435.9,286047001.2,N
1606567455.7,286046998.3,N
1606567475.6,286047005.8,N
1606567495.4,286047005.0,N
1606567515.2,286047008.3,N
1606567535.1,286047003.5,N
1606567536.0,286047003.5,N
1606567555.8,286047005.9,N
1606567575.7,286047006.4,N
1606567595.5,286047002.2,N
1606567615.3,286047003.5,N
1606567635.2,286047000.5,N
1606567655.0,286047005.4,N
1606567655.9,286047005.4,N
1606567675.7,286047014.5,N
1606567695.6,286047011.2,N
1606567715.4,286047014.1,N
1606567735.3,286047019.2,N
1606567755.1,286047022.4,N
1606567756.0,286047022.4,N
1606567775.8,286047021.1,N
1606567795.7,286047021.5,N
1606567815.5,286047014.1,N
1606567835.3,286047017.1,N
1606567855.2,286047014.1,N
1606567875.0,286047015.8,N
1606567875.9,286047015.8,N
1606567895.8,286047017.5,N
1606567915.6,286047019.1,N
1606567935.4,286047019.4,N
1606567955.3,286047020.8,N
1606567975.1,286047017.0,N
1606567995.8,286047013.3,N
1606568015.7,286047015.6,N
1606568035.5,286047015.3,N
1606568055.4,286047012.2,N
1606568075.2,286047008.8,N
1606568095.0,286047004.8,N
1606568095.9,286047004.8,N
1606568115.8,286047004.6,N
1606568135.6,286047009.3,N
1606568155.4,286047013.1,N
1606568175.3,286047017.9,Y
1606568195.1,286047005.3,P
1606568215.9,286047007.2,N
1606568235.7,286047007.0,N
1606568255.5,286047003.7,N
1606568275.4,286047003.9,N
1606568295.2,286047005.7,N
1606568315.0,286047001.8,N
1606568316.0,286047001.8,N
1606568335.8,286046995.3,N
1606568355.6,286046990.0,N
1606568375.5,286046987.8,N
1606568395.3,286046989.4,N
